Location: Bacharowice
(49.9333°N, 19.5833°E)
Time: 17:37:38
(UTC+00:00)

Envisat - Visible Passes

Search period start: 26 May 2024 00:00
Search period end: 05 June 2024 00:00
Orbit: 762 x 764 km, 98.3° (Epoch: 26 May)

Date Brightness Start Highest point End Pass type
(mag) Time Alt. Az. Time Alt. Az. Time Alt. Az.
26 May 4.6 01:20:15 10° NNE 01:24:48 32° E 01:29:18 10° SSE visible
27 May 5.4 00:43:56 10° NE 00:47:01 16° E 00:50:05 10° SE visible
28 May 3.8 01:44:15 10° NNE 01:49:13 50° E 01:54:08 10° S visible
29 May 4.9 01:07:23 10° NE 01:11:35 25° E 01:15:44 10° SSE visible
30 May 5.6 00:31:41 10° ENE 00:33:43 12° E 00:35:46 10° ESE visible
31 May 4.2 01:31:16 10° NNE 01:36:02 39° E 01:40:46 10° SSE visible
01 Jun 5.2 00:54:38 10° NE 00:58:20 20° E 01:02:00 10° SE visible
03 Jun 4.6 01:18:19 10° NNE 01:22:50 31° E 01:27:18 10° SSE visible
04 Jun 5.4 00:42:02 10° NE 00:45:03 16° E 00:48:02 10° ESE visible
